2023/01/26 00:00:00,67.1,-6.5
2023/01/26 00:10:00,67.1,-6.4
2023/01/26 00:20:00,66.9,-6.6
2023/01/26 00:30:00,66.8,-6.9
2023/01/26 00:40:00,66.8,-6.9
2023/01/26 00:50:00,66.7,-7.1
2023/01/26 01:00:00,66.6,-7.2
2023/01/26 01:10:00,66.5,-7.1
2023/01/26 01:20:00,66.4,-7.4
2023/01/26 01:30:00,66.3,-6.9
2023/01/26 01:40:00,66.2,-7.4
2023/01/26 01:50:00,66.2,-7.7
2023/01/26 02:00:00,66.1,-7.6
2023/01/26 02:10:00,66.0,-7.6
2023/01/26 02:20:00,66.0,-7.4
2023/01/26 02:30:00,65.8,-7.5
2023/01/26 02:40:00,65.7,-7.6
2023/01/26 02:50:00,65.6,-7.6
2023/01/26 03:00:00,65.4,-7.7
2023/01/26 03:10:00,65.3,-7.8
2023/01/26 03:20:00,65.1,-7.8
2023/01/26 03:30:00,65.0,-7.8
2023/01/26 03:40:00,64.8,-7.7
2023/01/26 03:50:00,64.7,-8.0
2023/01/26 04:00:00,64.7,-8.1
2023/01/26 04:10:00,64.5,-7.8
2023/01/26 04:20:00,64.4,-8.0
2023/01/26 04:30:00,64.2,-8.0
2023/01/26 04:40:00,64.0,-7.7
2023/01/26 04:50:00,63.9,-7.7
2023/01/26 05:00:00,63.9,-7.4
2023/01/26 05:10:00,63.8,-6.7
2023/01/26 05:20:00,63.7,-6.8
2023/01/26 05:30:00,63.6,-6.4
2023/01/26 05:40:00,63.4,-6.1
2023/01/26 05:50:00,63.3,-6.1
2023/01/26 06:00:00,63.1,-5.7
2023/01/26 06:10:00,63.0,-5.6
2023/01/26 06:20:00,62.9,-5.4
2023/01/26 06:30:00,62.8,-5.4
2023/01/26 06:40:00,62.6,-4.9
2023/01/26 06:50:00,62.6,-4.9
2023/01/26 07:00:00,62.0,-4.3
2023/01/26 07:10:00,61.3,-4.4
2023/01/26 07:20:00,61.3,-4.3
2023/01/26 07:30:00,61.3,-4.2
2023/01/26 07:40:00,61.2,-4.7
2023/01/26 07:50:00,61.2,-5.0
2023/01/26 08:00:00,61.1,-4.6
2023/01/26 08:10:00,61.0,-4.9
2023/01/26 08:20:00,60.9,-4.9
2023/01/26 08:30:00,60.8,-4.8
2023/01/26 08:40:00,60.7,-4.6
2023/01/26 08:50:00,60.7,-4.2
2023/01/26 09:00:00,60.6,-4.1
2023/01/26 09:10:00,60.5,-3.9
2023/01/26 09:20:00,60.4,-3.8
2023/01/26 09:30:00,60.3,-3.3
2023/01/26 09:40:00,60.1,-3.4
2023/01/26 09:50:00,60.0,-2.7
2023/01/26 10:00:00,59.9,-2.3
2023/01/26 10:10:00,59.8,-2.0
2023/01/26 10:20:00,59.8,-1.1
2023/01/26 10:30:00,59.7,-0.2
2023/01/26 10:40:00,59.7, 0.2
2023/01/26 10:50:00,59.5, 1.0
2023/01/26 11:00:00,59.4, 1.4
2023/01/26 11:10:00,59.5, 2.5
2023/01/26 11:20:00,59.4, 3.3
2023/01/26 11:30:00,59.3, 3.8
2023/01/26 11:40:00,59.2, 5.7
2023/01/26 11:50:00,59.2, 5.9
2023/01/26 12:00:00,59.0, 4.7
2023/01/26 12:10:00,58.8, 4.5
2023/01/26 12:20:00,58.7, 7.1
2023/01/26 12:30:00,58.7, 8.6
2023/01/26 12:40:00,58.7, 9.5
2023/01/26 12:50:00,58.4, 9.3
2023/01/26 13:00:00,57.3, 7.0
2023/01/26 13:10:00,57.0, 5.7
2023/01/26 13:20:00,56.9, 5.4
2023/01/26 13:30:00,---, 4.4
2023/01/26 13:40:00,---, 4.5
2023/01/26 13:50:00,302.1, 3.8
2023/01/26 14:00:00,300.3, 3.7
2023/01/26 14:10:00,298.3, 3.4
2023/01/26 14:20:00,297.3, 3.1
2023/01/26 14:30:00,295.6, 3.1
2023/01/26 14:40:00,294.4, 2.8
2023/01/26 14:50:00,293.2, 2.5
2023/01/26 15:00:00,292.2, 2.4
2023/01/26 15:10:00,291.4, 2.1
2023/01/26 15:20:00,291.3, 1.7
2023/01/26 15:30:00,290.7, 1.2
2023/01/26 15:40:00,290.3, 1.5
2023/01/26 15:50:00,---, 1.4
2023/01/26 16:00:00,54.1, 1.4
2023/01/26 16:10:00,53.8, 1.0
2023/01/26 16:20:00,53.9, 1.2
2023/01/26 16:30:00,54.0, 1.2
2023/01/26 16:40:00,54.0, 1.0
2023/01/26 16:50:00,54.0, 0.7
2023/01/26 17:00:00,53.9, 0.7
2023/01/26 17:10:00,53.8, 0.5
2023/01/26 17:20:00,53.7, 0.5
2023/01/26 17:30:00,53.7, 0.1
2023/01/26 17:40:00,53.6, 0.4
2023/01/26 17:50:00,53.9, 0.4
2023/01/26 18:00:00,54.7, 0.1
2023/01/26 18:10:00,55.2, 0.1
2023/01/26 18:20:00,55.3,-0.1
2023/01/26 18:30:00,55.3, 0.0
2023/01/26 18:40:00,55.4, 0.0
2023/01/26 18:50:00,55.4,-0.1
2023/01/26 19:00:00,55.2,-0.1
2023/01/26 19:10:00,55.3,-0.1
2023/01/26 19:20:00,55.3,-0.2
2023/01/26 19:30:00,55.3,-0.2
2023/01/26 19:40:00,55.2,-0.2
2023/01/26 19:50:00,55.2,-0.2
2023/01/26 20:00:00,55.1,-0.2
2023/01/26 20:10:00,55.1,-0.1
2023/01/26 20:20:00,55.1,-0.2
2023/01/26 20:30:00,55.0,-0.2
2023/01/26 20:40:00,54.8,-0.1
2023/01/26 20:50:00,54.7,-0.2
2023/01/26 21:00:00,54.7,-0.2
2023/01/26 21:10:00,54.6,-0.3
2023/01/26 21:20:00,54.5,-0.1
2023/01/26 21:30:00,54.4,-0.2
2023/01/26 21:40:00,54.4,-0.3
2023/01/26 21:50:00,54.3,-0.3
2023/01/26 22:00:00,54.3,-0.4
2023/01/26 22:10:00,54.3,-0.2
2023/01/26 22:20:00,54.2,-0.4
2023/01/26 22:30:00,54.2,-0.3
2023/01/26 22:40:00,54.1,-0.4
2023/01/26 22:50:00,54.0,-0.5
2023/01/26 23:00:00,54.0,-0.4
2023/01/26 23:10:00,54.0,-0.3
2023/01/26 23:20:00,54.0,-0.6
2023/01/26 23:30:00,53.9,-0.3
2023/01/26 23:40:00,53.8,-0.4
2023/01/26 23:50:00,53.8,-0.6
